Weather Roundup
Issued by NWS Chicago, IL

Home | Current Version | Previous Version | Graphics & Text | Print | Product List | Glossary On
Versions: 1 2 3 4 5 6 7 8 9 10 11 12 13 14 15 16 17 18 19 20 21 22 23 24 25 26 27 28 29 30 31 32 33 34 35 36 37 38 39 40 41 42 43 44 45 46 47 48 49 50
000
NZUS59 KLOT 291802
HRRLOT

CHICAGO AREA WEATHER ROUNDUP
NATIONAL WEATHER SERVICE CHICAGO/ROMEOVILLE IL
100 PM CDT FRI MAY 29 2015

NOTE: "FAIR" INDICATES FEW OR NO CLOUDS BELOW 12,000 FEET WITH NO
SIGNIFICANT WEATHER AND/OR OBSTRUCTIONS TO VISIBILITY.

* THESE STATIONS ARE NOT UNDER NWS QUALITY CONTROL. THEY ALSO MAY NOT
  REPORT WEATHER SUCH AS PRECIPITATION OR FOG.

ILZ005-006-012>014-019>023-291900-
NORTHEAST ILLINOIS

CITY           SKY/WX    TMP DP  RH WIND       PRES   REMARKS
OHARE          PTSUNNY   77  67  71 S13       29.99F
6HR MIN TEMP:  69; 6HR MAX TEMP:  79; 6HR PCP:  0.17;

MIDWAY         PTSUNNY   78  69  73 SW10      30.00F HX  80
6HR MIN TEMP:  72; 6HR MAX TEMP:  82; 6HR PCP:  0.17;

AURORA         PTSUNNY   80  66  62 S14G24    29.98F HX  82
6HR MIN TEMP:  68; 6HR MAX TEMP:  80;

WAUKEGAN       CLOUDY    79  66  64 S15       29.97F HX  81
6HR MIN TEMP:  65; 6HR MAX TEMP:  79; 6HR PCP: TRACE;

DUPAGE AIRPORT PTSUNNY   78  66  66 S15       29.98F HX  80
6HR MIN TEMP:  68; 6HR MAX TEMP:  79; 6HR PCP:  0.03;

WHEELING       CLOUDY    77  66  68 S12       30.00F
6HR MIN TEMP:  69; 6HR MAX TEMP:  79; 6HR PCP:  0.03;

NORTHERLY IS     N/A     74  66  76 S7          N/A
$$

WIZ051-052-058>065-066-070>072-291900-
SOUTHEAST WISCONSIN

CITY           SKY/WX    TMP DP  RH WIND       PRES   REMARKS
MILWAUKEE      RAIN      72  65  78 S18       29.99R
6HR MIN TEMP:  65; 6HR MAX TEMP:  80; 6HR PCP: TRACE;

KENOSHA*       CLOUDY    77  67  71 S8        29.98F
RACINE*        LGT RAIN  69  65  86 S6        30.00F FOG
WAUKESHA       PTSUNNY   72  61  68 SE12G22   29.99F
$$

INZ001>003-010>013-019-020-291900-
NORTHWEST INDIANA

CITY           SKY/WX    TMP DP  RH WIND       PRES   REMARKS
GARY*          PTSUNNY   77  70  78 W9        30.03R
MICHIGAN CITY* NOT AVBL
RENSSELAER*    NOT AVBL
VALPARAISO     HVY RAIN  71  68  90 S17G29    30.05R VSB 3/4
$$

LMZ740>746-291900-
SOUTHERN LAKE MICHIGAN

STATION/POSITION TIME  SKY/WX   TEMP WIND        PRES    VSBY
                                AIR  DIR/SP/G
                 (UTC)          (F)  (DEG/KT/KT) (MB)    (MI)
HARRISON CRIB    1700            74  200/ 20/ 25   N/A
BURNHAM HARBOR   1800            75  170/  9/ 23   N/A
CALUMET HARBOR   1700            76  200/ 15/ 26   N/A
BURNS HARBOR     1721            79  190/ 16/ 25 1016.3F
MICHIGAN CITY    1700            79  170/ 11/ 14   N/A
$$

ABBREVIATIONS USED IN REMARKS
   TC - TEMPERATURE IN CELSIUS
  WCI - WIND CHILL INDEX
   HX - HEAT INDEX
  VSB - VISIBILITY
$$



USA.gov is the U.S. government's official web portal to all federal, state and local government web resources and services.